Notices

What's New in latest Release from April 7th, 2021:

- Updated Glossary, including Speed of Maximum Gust, and Total Hourly Precipitation

- Updated national and regional climate services offices contacts and prices information

- Addition of station inventory lists for 1981-2010, 1971-2000, and 1961-1990 Normals.

If you haven't already, please take our survey and provide feedback about our website: https://eccc.sondage-survey.ca/f/LanguageSelection.aspx?s=442ca660-fcf1-47c0-95a9-59707d6fd709

Hourly Data Report for April 15, 2020

MIRAMICHI RCS
NEW BRUNSWICK
Current Station Operator: ECCC - MSC

47°00'34.000" N
65°27'54.000" W
33.00 m
8100989
71744
ACQ

Download Data

Hourly Data (April 2020)
Hourly Data Report for April 15, 2020
TIME
LST
Temp Definition
°C
Dew Point Definition
°C
Rel Hum Definition
%
Precip. Amount Definition
mm

Wind Dir Definition
10's deg

Wind Spd Definition
km/h
Visibility Definition
km
Stn Press Definition
kPa
Hmdx Definition


Wind Chill Definition


Weather Definition


00:00 0.5 -5.3 65 LegendMM 24 4   100.70     LegendNANA
01:00 0.4 -5.5 64 LegendMM 25 5   100.73     LegendNANA
02:00 1.7 -5.9 57 LegendMM 22 12   100.79     LegendNANA
03:00 1.6 -6.0 57 LegendMM 23 9   100.76     LegendNANA
04:00 1.2 -6.2 58 LegendMM 27 5   100.73     LegendNANA
05:00 0.8 -6.2 60 LegendMM 24 5   100.68     LegendNANA
06:00 -0.5 -5.2 71 LegendMM 27 4   100.67   -2 LegendNANA
07:00 0.9 -5.7 61 LegendMM 24 7   100.69     LegendNANA
08:00 3.1 -6.1 51 LegendMM 23 9   100.66     LegendNANA
09:00 4.8 -7.4 41 LegendMM 23 12   100.64     LegendNANA
10:00 5.5 -9.3 34 LegendMM 21 21   100.53     LegendNANA
11:00 6.3 -8.2 34 LegendMM 23 24   100.42     LegendNANA
12:00 7.1 -8.5 32 LegendMM 24 19   100.27     LegendNANA
13:00 7.7 -8.4 31 LegendMM 23 23   100.16     LegendNANA
14:00 8.4 -7.8 31 LegendMM 26 20   100.06     LegendNANA
15:00 9.0 -8.3 29 LegendMM 23 20   99.96     LegendNANA
16:00 8.2 -7.9 31 LegendMM 25 13   99.90     LegendNANA
17:00 8.0 -9.1 29 LegendMM 26 21   99.88     LegendNANA
18:00 7.2 -7.9 33 LegendMM 29 17   99.88     LegendNANA
19:00 5.3 -4.8 48 LegendMM 30 15   99.94     LegendNANA
20:00 4.0 -5.0 52 LegendMM 26 7   100.02     LegendNANA
21:00 2.9 -4.4 59 LegendMM 25 5   100.09     LegendNANA
22:00 2.3 -5.5 57 LegendMM 29 12   100.11     LegendNANA
23:00 0.9 -5.1 64 LegendMM 28 4   100.15     LegendNANA

Notes on Data Quality.

Legend

  • E = Estimated
  • M = Missing
  • NA = Not Available*
  • [empty] = Indicates an unobserved value
Date modified: